Weather History for Hickory, NC

Change the Weather History Date:

Tuesday, April 2, 2013

  Actual Average Record
Temperature  
Mean Temperature 50 °F -  
Max Temperature 62 °F 67 °F 86 °F (1978)
Min Temperature 39 °F 43 °F 30 °F (1972)
Degree Days  
Heating Degree Days 15    
Moisture  
Dew Point 22 °F    
Average Humidity 35    
Maximum Humidity 58    
Minimum Humidity 17    
Precipitation  
Precipitation 0.00 in - - ()
Sea Level Pressure  
Sea Level Pressure 30.04 in    
Wind  
Wind Speed 6 mph (NW)    
Max Wind Speed 14 mph    
Max Gust Speed 22 mph    
Visibility 10 miles    
Events      
Averages and records for this station are not official NWS values.
T = Trace of Precipitation, MM = Missing Value Source: NWS Daily Summary

Daily Weather History Graph

Daily Weather History Graph

Search for Another Location

Airport:

Trip Planner

Search our weather history database for the weather conditions in past years. The results will help you decide how hot, cold, wet, or windy it might be!

Date:

Astronomy

Apr. 02, 2013 Rise Set
Actual Time 7:10 AM EDT 7:48 PM EDT
Civil Twilight 6:44 AM EDT 8:14 PM EDT
Nautical Twilight 6:14 AM EDT 8:44 PM EDT
Astronomical Twilight 5:43 AM EDT 9:15 PM EDT
Moon 1:43 AM EDT (4/2) 12:07 PM EDT (4/2)
Length of Visible Light 13h 29m
Length of Day
12h 38m
Waning Gibbous, 56% of the Moon is Illuminated
Apr 2
Waning Gibbous
Apr 3
Last Quarter
Apr 10
New
Apr 18
First Quarter
Apr 25
Full

Hourly Weather History & Observations

Time (EDT) Temp. Windchill Dew Point Humidity Pressure Visibility Wind Dir Wind Speed Gust Speed Precip Events Conditions
12:53 AM 51.1 °F - 30.9 °F 46% 29.94 in 10.0 mi North 5.8 mph - N/A   Scattered Clouds
1:53 AM 51.1 °F - 30.0 °F 44% 29.96 in 10.0 mi NNW 4.6 mph - N/A   Clear
2:53 AM 48.0 °F - 30.0 °F 50% 29.97 in 10.0 mi North 3.5 mph - N/A   Clear
3:53 AM 44.1 °F 41.5 °F 30.0 °F 58% 29.98 in 10.0 mi North 4.6 mph - N/A   Clear
4:53 AM 45.0 °F 41.8 °F 28.9 °F 53% 30.00 in 10.0 mi NNW 5.8 mph - N/A   Clear
5:53 AM 44.1 °F 40.8 °F 26.1 °F 49% 30.02 in 10.0 mi NW 5.8 mph - N/A   Clear
6:53 AM 39.9 °F 36.7 °F 26.1 °F 58% 30.05 in 10.0 mi North 4.6 mph - N/A   Clear
7:53 AM 42.1 °F - 26.1 °F 53% 30.09 in 10.0 mi Calm Calm - N/A   Clear
8:53 AM 45.0 °F 42.6 °F 26.1 °F 48% 30.11 in 10.0 mi NNW 4.6 mph - N/A   Clear
9:53 AM 48.0 °F - 26.1 °F 42% 30.11 in 10.0 mi Variable 6.9 mph - N/A   Clear
10:53 AM 50.0 °F - 25.0 °F 38% 30.12 in 10.0 mi West 5.8 mph - N/A   Clear
11:53 AM 52.0 °F - 24.1 °F 34% 30.11 in 10.0 mi Variable 3.5 mph - N/A   Clear
12:53 PM 55.0 °F - 12.0 °F 18% 30.09 in 10.0 mi West 10.4 mph 19.6 mph N/A   Clear
1:53 PM 55.9 °F - 16.0 °F 21% 30.07 in 10.0 mi West 8.1 mph 18.4 mph 0.00 in   Clear
2:53 PM 59.0 °F - 15.1 °F 18% 30.03 in 10.0 mi Variable 6.9 mph - N/A   Clear
3:53 PM 61.0 °F - 15.1 °F 17% 30.01 in 10.0 mi West 13.8 mph 21.9 mph N/A   Clear
4:53 PM 60.1 °F - 18.0 °F 20% 30.00 in 10.0 mi West 12.7 mph 20.7 mph N/A   Clear
5:53 PM 61.0 °F - 18.0 °F 19% 30.00 in 10.0 mi WNW 6.9 mph - N/A   Clear
6:53 PM 59.0 °F - 19.0 °F 21% 30.02 in 10.0 mi NW 5.8 mph - N/A   Clear
7:53 PM 55.0 °F - 19.9 °F 25% 30.04 in 10.0 mi North 9.2 mph - N/A   Clear
8:53 PM 53.1 °F - 16.0 °F 23% 30.06 in 10.0 mi North 6.9 mph - N/A   Overcast
9:53 PM 53.1 °F - 15.1 °F 22% 30.08 in 10.0 mi NNW 5.8 mph - N/A   Overcast
10:53 PM 51.1 °F - 18.0 °F 27% 30.09 in 10.0 mi NNE 3.5 mph - N/A   Overcast
11:53 PM 50.0 °F - 19.9 °F 31% 30.09 in 10.0 mi North 3.5 mph - N/A   Mostly Cloudy